Location: Unspecified
(0.0000°N, 0.0000°E)
Time: 04:03:49
(UTC+00:00)

Envisat - Pass Details

Date: 21 June 2019
Orbit: 764 x 766 km, 98.1° (Epoch: 26 June)

Event Time Altitude Azimuth Distance (km) Brightness Sun altitude
Rises 18:47:39 0° 168° (SSE) 3,231 5.9 -10.5°
Reaches altitude 10° 18:49:57 10° 167° (SSE) 2,302 5.1 -11.0°
Maximum altitude 18:55:02 88° 78° (ENE) 769 3.0 -12.2°
Drops below altitude 10° 19:00:06 10° 349° (NNW) 2,291 6.0 -13.3°
Sets 19:02:23 0° 349° (NNW) 3,214 6.8 -13.9°
